Location: Goudex
(43.3760°N, 0.9543°E)
Time: 12:47:13
(UTC+00:00)

Cosmos 2151 - Pass Details

Date: 20 November 2019
Orbit: 581 x 602 km, 82.5° (Epoch: 12 December)

Event Time Altitude Azimuth Distance (km) Brightness Sun altitude
Exits shadow 05:33:04 25° 290° (WNW) 1,224 4.0 -14.9°
Drops below altitude 10° 05:36:33 10° 343° (NNW) 1,953 5.3 -14.2°
Sets 05:39:05 0° 357° (N) 2,859 6.3 -13.8°
